Weather History for Cotulla, TX

Change the Weather History Date:

Tuesday, May 21, 2013

  Actual Average Record
Temperature  
Mean Temperature 85 °F -  
Max Temperature 95 °F 91 °F 100 °F (1998)
Min Temperature 75 °F 67 °F 62 °F (2007)
Cooling Degree Days 20    
Growing Degree Days 35 (Base 50)    
Moisture  
Dew Point 70 °F    
Average Humidity 64    
Maximum Humidity 89    
Minimum Humidity 41    
Precipitation  
Precipitation 0.00 in - - ()
Sea Level Pressure  
Sea Level Pressure 29.71 in    
Wind  
Wind Speed 9 mph (SE)    
Max Wind Speed 14 mph    
Max Gust Speed 22 mph    
Visibility 7 miles    
Events      
Averages and records for this station are not official NWS values.
T = Trace of Precipitation, MM = Missing Value Source: NWS Daily Summary

Daily Weather History Graph

Daily Weather History Graph

Search for Another Location

Airport:

Trip Planner

Search our weather history database for the weather conditions in past years. The results will help you decide how hot, cold, wet, or windy it might be!

Date:

Astronomy

May. 21, 2013 Rise Set
Actual Time 6:43 AM CDT 8:24 PM CDT
Civil Twilight 6:17 AM CDT 8:50 PM CDT
Nautical Twilight 5:45 AM CDT 9:21 PM CDT
Astronomical Twilight 5:13 AM CDT 9:54 PM CDT
Moon 4:55 PM CDT (5/21) 3:53 AM CDT (5/21)
Length of Visible Light 14h 33m
Length of Day
13h 40m
Waxing Gibbous, 84% of the Moon is Illuminated
May 21
Waxing Gibbous
May 24
Full
May 31
Last Quarter
Jun 8
New
Jun 16
First Quarter

Hourly Weather History & Observations

Time (CDT) Temp. Heat Index Dew Point Humidity Pressure Visibility Wind Dir Wind Speed Gust Speed Precip Events Conditions
12:53 AM 80.1 °F 83.8 °F 72.0 °F 76% 29.71 in 10.0 mi ESE 10.4 mph - N/A   Clear
1:53 AM 78.1 °F - 71.1 °F 79% 29.73 in 10.0 mi East 8.1 mph - N/A   Clear
2:53 AM 75.9 °F - 71.1 °F 85% 29.71 in 10.0 mi East 9.2 mph - N/A   Clear
3:53 AM 75.9 °F - 71.1 °F 85% 29.70 in 10.0 mi East 11.5 mph - N/A   Clear
4:53 AM 75.9 °F - 71.1 °F 85% 29.69 in 9.0 mi ESE 12.7 mph - N/A   Partly Cloudy
5:53 AM 75.9 °F - 71.1 °F 85% 29.67 in 8.0 mi SE 12.7 mph 21.9 mph N/A   Clear
6:16 AM 75.2 °F - 71.6 °F 89% 29.73 in 8.0 mi SE 9.2 mph 17.3 mph N/A   Mostly Cloudy
6:53 AM 77.0 °F - 71.1 °F 82% 29.71 in 6.0 mi SE 9.2 mph 17.3 mph N/A   Haze
7:53 AM 78.1 °F - 71.1 °F 79% 29.74 in 5.0 mi SE 10.4 mph 17.3 mph N/A   Haze
8:53 AM 80.1 °F 83.6 °F 71.1 °F 74% 29.75 in 4.0 mi SE 13.8 mph 17.3 mph N/A   Haze
9:53 AM 82.0 °F 86.3 °F 71.1 °F 69% 29.76 in 5.0 mi SSE 11.5 mph 20.7 mph N/A   Haze
10:40 AM 82.4 °F 86.3 °F 69.8 °F 66% 29.78 in 5.0 mi SSE 9.2 mph 20.7 mph N/A   Haze
10:53 AM 84.0 °F 88.4 °F 70.0 °F 63% 29.76 in 5.0 mi SSE 11.5 mph 17.3 mph N/A   Haze
11:53 AM 88.0 °F 92.9 °F 70.0 °F 55% 29.75 in 5.0 mi South 5.8 mph - N/A   Haze
12:53 PM 90.0 °F 94.5 °F 69.1 °F 50% 29.74 in 6.0 mi SSE 8.1 mph - N/A   Haze
1:53 PM 91.9 °F 95.4 °F 66.9 °F 44% 29.73 in 6.0 mi SSE 9.2 mph - N/A   Haze
2:53 PM 93.0 °F 97.4 °F 68.0 °F 44% 29.72 in 7.0 mi SE 10.4 mph - N/A   Mostly Cloudy
3:53 PM 95.0 °F 99.5 °F 68.0 °F 41% 29.69 in 6.0 mi ESE 6.9 mph - N/A   Haze
4:53 PM 93.0 °F 96.4 °F 66.9 °F 42% 29.67 in 6.0 mi SSE 6.9 mph - N/A   Haze
5:53 PM 93.0 °F 96.4 °F 66.9 °F 42% 29.66 in 6.0 mi South 3.5 mph - N/A   Haze
6:53 PM 93.0 °F 96.4 °F 66.9 °F 42% 29.66 in 6.0 mi Calm Calm - N/A   Haze
7:53 PM 91.9 °F 95.9 °F 68.0 °F 45% 29.67 in 6.0 mi Calm Calm - N/A   Haze
8:53 PM 89.1 °F 92.9 °F 68.0 °F 50% 29.68 in 7.0 mi Calm Calm - N/A   Clear
9:53 PM 87.1 °F 93.6 °F 72.0 °F 61% 29.70 in 9.0 mi ESE 6.9 mph - N/A   Clear
10:53 PM 84.9 °F 90.7 °F 72.0 °F 65% 29.73 in 10.0 mi SE 4.6 mph - N/A   Clear
11:53 PM 84.0 °F 89.6 °F 72.0 °F 67% 29.75 in 10.0 mi East 6.9 mph - N/A   Clear